[keps] orb07088.2l.amsat

Ray Hoad r.hoad at att.net
Thu Mar 29 16:40:06 PST 2007


SB KEPS @ AMSAT  $ORB07088.N
2Line Orbital Elements 07088.AMSAT

HR AMSAT ORBITAL ELEMENTS FOR AMATEUR SATELLITES IN NASA FORMAT
FROM WA5QGD FORT WORTH,TX March 29, 2007
Send SUBSCRIBE KEPS/UNSUBSCRIBE KEPS to majordomo at amsat.org only
BID: ORB07088.N

DECODE 2-LINE ELSETS WITH THE FOLLOWING KEY:
1 AAAAAU 00  0  0 BBBBB.BBBBBBBB  .CCCCCCCC  00000-0  00000-0 0  DDDZ
2 AAAAA EEE.EEEE FFF.FFFF GGGGGGG HHH.HHHH III.IIII JJ.JJJJJJJJKKKKKZ
KEY: A-CATALOGNUM B-EPOCHTIME C-DECAY D-ELSETNUM E-INCLINATION F-RAAN
G-ECCENTRICITY H-ARGPERIGEE I-MNANOM J-MNMOTION K-ORBITNUM Z-CHECKSUM

TO ALL RADIO AMATEURS BT

AO-07
1 07530U 74089B   07088.17545432 -.00000028  00000-0  10000-3 0  8395
2 07530 101.5253 128.5114 0012136 052.3893 307.8279 12.53572676481091
AO-10
1 14129U 83058B   07086.45789726  .00000040  00000-0  10000-3 0 03699
2 14129 026.7713 284.9388 6055188 009.0955 358.2787 02.05869736178886
UO-11
1 14781U 84021B   07087.57679784  .00000382  00000-0  58368-4 0 03352
2 14781 098.1966 108.6998 0010175 072.6094 287.6207 14.79536126237812
RS-10/11
1 18129U 87054A   07088.60580137  .00000028  00000-0  13917-4 0  2581
2 18129 082.9225 117.0580 0012939 026.9863 333.1960 13.72785718990317
RS-15
1 23439U 94085A   07087.62797687 -.00000039  00000-0  10597-3 0 00710
2 23439 064.8168 137.2033 0161801 205.0888 154.2108 11.27551866504612
FO-29
1 24278U 96046B   07087.96397465  .00000006  00000-0  44893-4 0 04846
2 24278 098.5411 058.4118 0349947 291.3025 065.1084 13.52929080524057
SO-33
1 25509U 98061B   07088.64824126  .00000254  00000-0  40224-4 0  8953
2 25509 031.4300 315.4464 0354548 092.0888 272.0370 14.28156006439870
AO-40
1 26609U 00072B   07087.92289138  .00000065  00000-0  10000-3 0  8574
2 26609 004.9539 161.2286 7988970 294.4721 005.5412 01.25586528 29435
VO-52
1 28650U 05017B   07087.38783343  .00000502  00000-0  70693-4 0 05908
2 28650 097.8365 159.8950 0027875 154.7241 205.5298 14.81287063102454
PO-63
1 29712U 07001D   07088.78689400  .00000778  00000-0  11065-3 0  2311
2 29712 097.9291 149.0269 0014856 031.9319 328.2796 14.79609127 11590
AO-16
1 20439U 90005D   07087.58360932 -.00000013  00000-0  10074-4 0  9980
2 20439 098.1951 086.5906 0011956 068.2293 292.0164 14.31753937897011
LO-19
1 20442U 90005G   07088.54394125  .00000010  00000-0  18847-4 0  9254
2 20442 098.1825 096.9444 0012948 064.6193 295.6332 14.31995367897299
AO-27
1 22825U 93061C   07087.47762738 -.00000042  00000-0 -18645-6 0 06494
2 22825 098.3230 060.9109 0009043 136.0527 224.1370 14.29202944703962
IO-26
1 22826U 93061D   07088.44879072  .00000023  00000-0  25039-4 0  3456
2 22826 098.3160 062.9433 0009326 129.8919 230.3091 14.29449130704180
PO-28
1 22829U 93061G   07087.53424824  .00000062  00000-0  39986-4 0  6237
2 22829 098.3055 063.2476 0010602 108.7699 251.4655 14.30148191704283
GO-32
1 25397U 98043D   07088.64182879 -.00000145  00000-0 -45849-4 0  2650
2 25397 098.4237 139.3022 0002053 096.0839 264.0560 14.23121759452847
MO-46
1 26548U 00057D   07087.53958620  .00000103  00000-0  30611-4 0  7578
2 26548 064.5563 072.1560 0025054 207.8505 152.1277 14.83115214351576
NO-44
1 26931U 01043C   07087.90707379 -.00000191  00000-0 -42345-4 0 05534
2 26931 067.0550 354.2862 0006710 277.3511 082.6834 14.29476337286627
SO-50
1 27607U 02058C   07087.16770098  .00000089  00000-0  36002-4 0 02767
2 27607 064.5603 331.0159 0044756 025.0552 335.2716 14.71241662229201
CO-55
1 27844U 03031E   07088.44009041  .00000023  00000-0  31157-4 0  9937
2 27844 098.7213 097.8264 0009708 327.2204 032.8358 14.20499654194150
CO-57
1 27848U 03031J   07087.53472833  .00000036  00000-0  37224-4 0 09556
2 27848 098.7199 096.1578 0009626 332.6858 027.3816 14.20320448194007
AO-51
1 28375U 04025K   07088.55304938  .00000015  00000-0  17103-4 0  7806
2 28375 098.1238 131.9408 0085152 063.6569 297.3333 14.40560289144244
CO-56
1 28941U 06005C   07088.77349493  .00027082  25707-5  29391-3 0  3934
2 28941 098.1392 141.1849 0238376 193.4168 166.0658 15.36327558 61225
HO-59
1 29484U 06041F   07088.54836026  .00046660  30408-5  35619-3 0  2469
2 29484 098.2992 126.5580 0231521 190.0784 169.5780 15.44590082 28754
NO-60
1 29661U 06055C   07088.58704140  .00111386  16048-4  28741-3 0  1385
2 29661 051.6396 147.7633 0012674 031.2668 328.9065 15.94864253 15661
NO-61
1 29664U 06055F   07087.61705875  .00033336  00000-0  13004-3 0 01186
2 29664 051.6329 155.5110 0015979 028.3749 331.8123 15.86544882015342
NOAA-10
1 16969U 86073A   07088.10768995 -.00000110  00000-0 -26442-4 0  6019
2 16969 098.7512 105.2240 0013079 043.9714 316.2498 14.27320083 67801
NOAA-11
1 19531U 88089A   07088.07793098  .00000252  00000-0  15344-3 0  5993
2 19531 098.8095 178.2427 0010930 258.8374 101.1563 14.14841050954824
NOAA-12
1 21263U 91032A   07088.07691528 -.00000019  00000-0  11042-4 0   927
2 21263 098.7524 085.4566 0012525 343.9394 016.1363 14.25525182824835
MET-3/5
1 21655U 91056A   07087.94854827  .00000051  00000-0  10000-3 0 02756
2 21655 082.5518 059.6249 0014451 051.4895 308.7521 13.17010665750842
MET-2/21
1 22782U 93055A   07087.59318645  .00000000  00000-0 -13454-4 0 07862
2 22782 082.5440 105.8588 0023992 101.3630 259.0225 13.83616148685375
OKEAN-4
1 23317U 94066A   07088.60320830  .00000130  00000-0  13090-4 0  2237
2 23317 082.5420 010.7786 0022672 150.9507 209.2972 14.82482655672263
NOAA-14
1 23455U 94089A   07088.31615110  .00000095  00000-0  74530-4 0  5791
2 23455 098.9971 154.0515 0008663 328.8912 031.1800 14.13707579631356
SICH-1
1 23657U 95046A   07087.84629016  .00000297  00000-0  34649-4 0 00264
2 23657 082.5300 152.4212 0025017 144.1353 216.1545 14.81465577624134
NOAA-15
1 25338U 98030A   07088.03570292  .00000101  00000-0  62017-4 0  9376
2 25338 098.5308 086.9836 0009741 262.8081 097.2010 14.24632772461271
RESURS
1 25394U 98043A   07087.76288794 -.00000001  00000-0  17907-4 0 06256
2 25394 098.4504 145.4433 0002432 066.1003 294.0431 14.24131038452906
FENGYUN1
1 25730U 99025A   07088.80174616  .00000554  00000-0  35342-3 0   375
2 25730 098.6868 075.6889 0022574 354.8026 005.2913 14.07451486406296
OKEAN-0
1 25860U 99039A   07087.62370944  .00000075  00000-0  18815-4 0   134
2 25860 097.7323 093.6372 0000630 047.1466 312.9790 14.73439613413630
NOAA-16
1 26536U 00055A   07088.07039979  .00000059  00000-0  57135-4 0  3510
2 26536 099.1108 063.6463 0011025 042.0239 318.1800 14.12413884335793
NOAA-17
1 27453U 02032A   07088.33982482  .00000009  00000-0  22944-4 0  3617
2 27453 098.5853 159.5379 0011086 329.7703 030.2844 14.23864649247356
NOAA-18
1 28654U 05018A   07088.26891837  .00000060  00000-0  57593-4 0  8983
2 28654 098.8221 030.9187 0014887 132.3283 227.9170 14.11048207 95588
HUBBLE
1 20580U 90037B   07087.84483488  .00000471  00000-0  23752-4 0  8391
2 20580 028.4685 354.0115 0003499 321.7661 038.2691 15.00212271727882
UARS
1 21701U 91063B   07087.93643943  .00009135  00000-0  15382-3 0 00488
2 21701 056.9758 301.9982 0097917 040.4372 320.3906 15.47330429853320
PO-34
1 25520U 98064B   07087.84705482  .00000683  00000-0  23984-4 0 07097
2 25520 028.4598 286.4455 0005604 103.6294 256.4930 15.16956832465310
ISS
1 25544U 98067A   07088.78969064  .00029266  00000-0  16919-3 0  9211
2 25544 051.6326 154.2207 0015461 007.3447 097.5434 15.78203197478237
OO-38
1 26063U 00004C   07088.51926897  .00000028  00000-0  29782-4 0  8745
2 26063 100.2254 076.4320 0037225 024.3484 335.9442 14.35800281375613
NO-45
1 26932U 01043D   07088.81573648 -.00000038  00000-0  17363-4 0  5605
2 26932 067.0517 351.7007 0005852 291.6587 068.3884 14.29552454286791
UWE-1
1 28892U 05043C   07088.27365978  .00000194  00000-0  50545-4 0  7110
2 28892 098.1385 346.4698 0017751 005.3440 354.7941 14.59480832 75551
CO-58
1 28895U 05043F   07088.25497726  .00000070  00000-0  24576-4 0  6913
2 28895 098.1417 346.6335 0018286 005.4732 354.6633 14.59529759 75435
NCUBE2
1 28897U 05043H   07087.65314435  .00000151  00000-0  41301-4 0  2138
2 28897 098.1394 346.0063 0017851 008.6443 351.5073 14.59690371 67629
NMARS
1 29662U 06055D   07088.58057579  .00176996  23988-4  36974-3 0  1648
2 29662 051.6363 146.9221 0012929 025.2572 334.9057 15.98479009 15562
FCAL
1 29667U 06055J   07087.65048651  .00021223  00000-0  89651-4 0 01189
2 29667 051.6338 155.7427 0016661 031.5575 328.6423 15.85182017015210
FALCON
1 30776U 07006E   07087.85999100  .00000458  00000-0  36725-4 0 00332
2 30776 035.4348 339.5975 0000054 066.4944 293.5788 15.02664133002965
/EX






More information about the Keps mailing list